CDT,Max TemperatureF,Mean TemperatureF,Min TemperatureF,Max Dew PointF,MeanDew PointF,Min DewpointF,Max Humidity, Mean Humidity, Min Humidity, Max Sea Level PressureIn, Mean Sea Level PressureIn, Min Sea Level PressureIn, Max VisibilityMiles, Mean VisibilityMiles, Min VisibilityMiles, Max Wind SpeedMPH, Mean Wind SpeedMPH, Max Gust SpeedMPH,PrecipitationIn, CloudCover, Events, WindDirDegrees
2011-4-1,42,38,33,36,34,34,100,93,76,29.71,29.62,29.56,10,6,0,15,6,21,0.00,6,Fog,287
2011-4-2,46,38,30,37,33,30,100,87,71,29.91,29.84,29.76,10,10,10,10,6,,0.00,1,,280
2011-4-3,55,46,37,45,38,34,100,78,63,29.69,29.40,29.29,10,10,7,23,14,30,0.18,4,Rain,101
2011-4-4,42,38,33,37,29,23,100,74,46,29.81,29.68,29.44,10,10,5,28,16,39,0.00,4,Rain-Snow,314
2011-4-5,53,40,26,36,30,27,100,69,41,29.79,29.67,29.57,10,10,10,9,5,,0.00,2,,233
2011-4-6,53,43,33,37,34,28,100,70,41,29.87,29.77,29.64,10,10,7,12,5,,0.00,2,,305
2011-4-7,60,48,35,36,33,28,93,60,29,29.95,29.91,29.85,10,10,10,12,3,21,0.00,0,,156
2011-4-8,60,46,32,46,38,32,100,70,39,29.98,29.92,29.86,10,9,4,17,5,22,0.00,2,Rain,131
2011-4-9,55,50,46,50,47,45,100,89,77,29.90,29.80,29.59,10,6,1,13,5,,0.00,8,,127
2011-4-10,60,51,42,59,49,41,100,98,93,29.59,29.41,29.30,10,6,1,25,12,32,0.31,7,Rain-Thunderstorm,229
2011-4-11,59,49,39,41,36,30,93,66,36,29.96,29.80,29.60,10,10,10,20,15,29,0.00,2,,311
2011-4-12,69,53,37,41,37,36,93,59,28,30.05,29.99,29.92,10,10,10,8,3,,0.00,0,,175
2011-4-13,55,50,44,43,32,19,87,53,25,30.18,30.11,29.94,10,10,10,20,10,25,0.04,3,Rain,358
2011-4-14,44,37,30,34,29,25,93,71,46,30.23,30.19,30.11,10,10,10,21,13,28,0.02,4,Rain,63
2011-4-15,44,38,33,27,23,16,75,53,31,30.13,29.93,29.78,10,10,10,26,18,37,0.00,3,Rain,65
2011-4-16,37,34,30,30,28,25,100,82,70,29.80,29.73,29.70,10,9,2,22,14,31,0.00,8,Snow,320
2011-4-17,46,38,30,28,23,19,93,57,37,29.88,29.82,29.78,10,10,10,18,12,28,0.00,3,,340
2011-4-18,46,39,32,30,25,21,70,57,46,29.99,29.93,29.86,10,10,10,8,4,,0.00,6,,66
2011-4-19,46,40,35,27,25,21,70,56,39,29.99,29.95,29.92,10,10,10,17,10,22,0.00,3,,76
2011-4-20,44,38,32,36,33,30,100,88,57,30.22,30.09,29.99,10,6,1,15,3,22,0.18,7,Rain-Snow,306
2011-4-21,46,37,28,37,31,27,100,78,49,30.28,30.20,30.09,10,10,4,15,5,20,0.12,2,Rain,154
2011-4-22,41,39,37,41,39,37,100,98,93,30.02,29.83,29.64,10,6,2,18,14,24,0.16,8,Rain,108
2011-4-23,48,42,37,41,39,37,100,89,66,30.00,29.78,29.54,10,7,0,18,7,23,0.03,7,Fog,322
2011-4-24,60,46,32,39,34,28,100,66,29,30.04,30.00,29.93,10,10,5,10,3,16,0.00,0,,234
2011-4-25,62,48,35,39,33,27,93,52,29,29.97,29.87,29.72,10,10,10,13,3,20,0.00,0,,102
2011-4-26,59,50,41,43,40,28,100,87,31,29.67,29.58,29.52,10,10,7,25,16,33,0.42,8,Rain,47
2011-4-27,42,38,35,39,37,34,100,95,87,29.68,29.65,29.61,10,9,5,18,10,22,0.13,8,Rain,11
2011-4-28,57,46,35,39,35,28,100,76,33,29.85,29.77,29.69,10,10,7,18,11,23,0.00,6,Rain,330
2011-4-29,60,50,39,45,39,36,93,64,45,29.89,29.79,29.65,10,10,7,28,9,36,0.03,2,Rain,140
2011-4-30,57,50,41,48,41,27,100,76,44,29.66,29.53,29.48,10,9,2,26,15,34,0.50,7,Rain-Thunderstorm,200